Regional Weather Roundup
Issued by NWS

Home | Current Version | Previous Version | Text Only | Print | Product List | Glossary On
Versions: 1 2 3 4 5 6 7 8 9 10 11 12 13 14 15 16 17 18 19 20 21 22 23 24 25 26 27 28 29 30 31 32 33 34 35 36 37 38 39 40 41 42 43 44 45 46 47 48 49 50
000
ASUS43 KDMX 011007
RWRIA

WEATHER ROUNDUP FOR IOWA
NATIONAL WEATHER SERVICE DES MOINES IA
500 AM CDT TUE SEP 01 2015

NOTE: "FAIR" INDICATES FEW OR NO CLOUDS BELOW 12,000 FEET WITH NO
SIGNIFICANT WEATHER AND/OR OBSTRUCTIONS TO VISIBILITY.

* - THESE STATIONS ARE NOT NWS STATIONS...THUS NOT UNDER NWS
QUALITY CONTROL.  THEY ALSO DO NOT REPORT WEATHER SUCH
AS PRECIPITATION OR FOG.

IAZ001>003-012>014-020>022-031>034-043>046-011100-
   NORTHWEST IOWA

CITY           SKY/WX    TMP DP  RH WIND       PRES   REMARKS
CARROLL *      MOCLDY    70  70 100 SW10      29.93S
CHEROKEE *     CLEAR     64  64 100 CALM      29.91F FOG
DENISON *      CLEAR     70  68  94 S9        29.91F
LE MARS *      CLEAR     66  64  94 CALM      29.90F
ORANGE CITY *  CLEAR     68  66  94 SE5       29.90F
SHELDON *      PTCLDY    64  64 100 SE6       29.89F
SIOUX CITY     CLEAR     67  64  90 E8        29.89S
SPENCER        PTCLDY    63  60  90 CALM      29.92S FOG
STORM LAKE *   CLEAR     66  66 100 S5        29.94S
$$

IAZ055>058-069>071-079>083-090>094-011100-
   SOUTHWEST IOWA

CITY           SKY/WX    TMP DP  RH WIND       PRES   REMARKS
ATLANTIC *     CLEAR     66  66 100 S6        29.95S
AUDUBON *      CLEAR     64  63  94 CALM      29.96S FOG
CLARINDA *     CLEAR     66  66 100 S3        29.98S FOG
COUNCIL BLFS *   N/A     70  68  94 S8        29.93F
CRESTON *      CLEAR     68  68 100 S9        29.99S
LAMONI         CLEAR     70  67  90 S8        29.99S
RED OAK *      CLEAR     66  66 100 CALM      29.95S FOG
SHENANDOAH *   CLEAR     68  68 100 S3        29.95F
$$

IAZ047>049-059>061-072>074-084-011100-
   CENTRAL IOWA

CITY           SKY/WX    TMP DP  RH WIND       PRES   REMARKS
AMES           FOG       63  63 100 SE3       29.95S VSB 1/4
ANKENY *       CLEAR     66  66 100 CALM      29.96S FOG
CHARITON *     PTCLDY    70  68  94 S8        29.99S
DES MOINES     CLEAR     71  67  87 S8        29.96R
GRINNELL*      CLEAR     70  66  88 S7        29.99S
KNOXVILLE *    PTCLDY    70  68  94 S8        29.97S
MARSHALLTOWN   PTCLDY    70  67  90 S6        29.96S
PELLA *        CLEAR     70  70 100 S5        29.99S
PERRY *          N/A     66  64  94 S5        29.94S FOG
$$

IAZ004>006-015-016-023>025-035-036-011100-
   NORTH CENTRAL IOWA

CITY           SKY/WX    TMP DP  RH WIND       PRES   REMARKS
ALGONA *       CLEAR     70  68  94 S9        29.94S
CLARION *      CLEAR     70  68  94 S8        29.94S FOG
ESTHERVILLE    PTCLDY    62  61  96 S6        29.92F FOG
FORT DODGE *   CLEAR     68  64  88 S3        29.95S
MASON CITY     FOG       63  63 100 CALM      29.97S VSB 1/4
FOREST CITY *  FOG       61  61 100 CALM      29.95S VSB 1/4
IOWA FALLS *     N/A     66  66 100 SE6       29.97S FOG
$$

IAZ007>011-017>019-026>030-037>042-050>054-066-011100-
   NORTHEAST IOWA

CITY           SKY/WX    TMP DP  RH WIND       PRES   REMARKS
CEDAR RAPIDS   CLEAR     68  68 100 S5        29.98S
CHARLES CITY * MOCLDY    68  68 100 S7        29.97S FOG
CLINTON *      PTCLDY    70  68  94 S6        30.02S
DECORAH *      PTCLDY    70  70 100 CALM      29.97S FOG
DUBUQUE        CLEAR     69  68  96 SW7       30.01R FOG
MONTICELLO *   PTCLDY    68  68 100 CALM      29.99S FOG
OELWEIN *      FOG       66  66 100 CALM      29.99R VSB 1/2
WATERLOO       PTCLDY    68  67  96 SE3       29.96S FOG
$$

IAZ064-065-067-068-078-011100-
   EAST CENTRAL IOWA

CITY           SKY/WX    TMP DP  RH WIND       PRES   REMARKS
DAVENPORT      PTCLDY    72  70  93 S6        30.01R FOG
IOWA CITY      FOG       67  66  97 CALM      30.00R VSB 1/4
MT. PLEASANT * CLEAR     73  68  83 S6        30.01R
MUSCATINE *    PTCLDY    70  68  94 CALM      30.00S FOG
QUAD CITIES    PTCLDY    73  69  87 CALM      30.00R
$$

IAZ062-063-075>077-085>089-095>099-011100-
   SOUTHEAST IOWA

CITY           SKY/WX    TMP DP  RH WIND       PRES   REMARKS
BURLINGTON     CLEAR     73  71  93 S6        30.02R FOG
FAIRFIELD *    CLEAR     70  66  88 S6        30.00S
FORT MADISON * CLEAR     73  72  94 S6        30.03R
KEOKUK *       CLEAR     73  70  88 SW6       30.01S
OSKALOOSA *      N/A     68  66  94 S5        29.99S
CENTERVILLE *  CLEAR     68  66  94 S5        30.03R
OTTUMWA        CLEAR     70  68  93 S8        29.98R
WASHINGTON *     N/A    N/A N/A N/A MISG        N/A
$$

ABBREVIATIONS USED IN REMARKS
   TC - TEMPERATURES IN CELSIUS
  WCI - WIND CHILL INDEX
   HX - HEAT INDEX
  VSB - VISIBILITY
$$



USA.gov is the U.S. government's official web portal to all federal, state and local government web resources and services.